Location: Vinland
(47.7731°N, 122.6974°W)
Time: 19:10:04
(UTC+00:00)

Vanguard 1 Rocket - Pass Details

Date: 25 March 2023
Orbit: 654 x 4221 km, 34.3° (Epoch: 29 May)

Event Time Altitude Azimuth Distance (km) Brightness Sun altitude
Rises 08:30:13 0° 248° (WSW) 8,106 12.0 -40.4°
Reaches altitude 10° 08:36:38 10° 244° (WSW) 6,699 11.5 -40.3°
Enters shadow 08:37:28 11° 243° (WSW) 6,513 11.4 -40.3°
Exits shadow 09:04:36 - 111° (ESE) 3,834 10.5 -39.4°
Sets 09:06:57 0° 105° (ESE) 4,438 10.9 -39.3°
